This demonstration page uses our WeatherBlox Daily Observations layout. Learn more.

Hourly Observations for August 16, 2017

Temp ( °F °C ) Dew Point ( °F °C ) Humidity (%) Winds ( mph kmh ) Pressure ( in mb ) Visibility ( mi km ) Precip ( " mm )
12:15 am 00:15 Clear with Mist and Fog 70 21 70 21 100 100 Calm 29.97 1015 5 8.04672 0 0
12:35 am 00:35 Clear with Mist and Fog 70 21 70 21 100 100 Calm 29.97 1015 5 8.04672 0 0
12:55 am 00:55 Clear with Mist and Fog 68 20 68 20 100 100 Calm 29.97 1015 5 8.04672 0 0
1:15 am 01:15 Clear with Mist and Fog 68 20 68 20 100 100 W 3 6 29.97 1015 5 8.04672 0 0
1:35 am 01:35 Clear with Mist and Fog 68 20 68 20 100 100 Calm 29.97 1015 3 4.828032 0 0
1:55 am 01:55 Clear with Mist and Fog 70 21 70 21 100 100 Calm 29.97 1015 3 4.828032 0 0
2:15 am 02:15 Clear with Mist and Fog 70 21 70 21 100 100 Calm 29.94 1014 3 4.828032 0 0
2:35 am 02:35 Partly Cloudy with Mist and Fog 68 20 68 20 100 100 Calm 29.97 1015 4 6.437376 0 0
2:55 am 02:55 Clear 68 20 68 20 100 100 Calm 29.97 1015 7 11.265408 0 0
3:15 am 03:15 Clear 68 20 68 20 100 100 Calm 29.97 1015 7 11.265408 0 0
3:35 am 03:35 Clear with Mist and Fog 66 19 66 19 100 100 Calm 29.97 1015 5 8.04672 0 0
3:55 am 03:55 Clear with Mist and Fog 68 20 68 20 100 100 Calm 29.97 1015 5 8.04672 0 0
4:15 am 04:15 Clear with Mist and Fog 68 20 68 20 100 100 Calm 29.97 1015 4 6.437376 0 0
4:35 am 04:35 Clear with Mist and Fog 66 19 66 19 100 100 WNW 3 6 29.97 1015 3 4.828032 0 0
4:55 am 04:55 Clear with Mist and Fog 68 20 68 20 100 100 Calm 29.97 1015 5 8.04672 0 0
5:15 am 05:15 Clear 68 20 68 20 100 100 Calm 29.97 1015 7 11.265408 0 0
5:35 am 05:35 Clear 68 20 68 20 100 100 Calm 29.97 1015 7 11.265408 0 0
5:55 am 05:55 Clear 68 20 68 20 100 100 Calm 30 1016 7 11.265408 0 0
6:15 am 06:15 Clear with Mist and Fog 66 19 66 19 100 100 Calm 30 1016 5 8.04672 0 0
6:35 am 06:35 Mostly Cloudy with Mist and Fog 66 19 66 19 100 100 Calm 30 1016 1.25 2.01168 0 0
6:55 am 06:55 Sunny with Mist and Fog 68 20 68 20 100 100 Calm 30 1016 4 6.437376 0 0
7:15 am 07:15 Sunny 68 20 68 20 100 100 Calm 30 1016 7 11.265408 0 0
7:35 am 07:35 Sunny with Mist and Fog 68 20 68 20 100 100 Calm 30.03 1017 5 8.04672 0 0
7:55 am 07:55 Sunny 70 21 70 21 100 100 Calm 30.03 1017 7 11.265408 0 0
8:15 am 08:15 Sunny 72 22 72 22 100 100 Calm 30.03 1017 10 16.09344 0 0
8:35 am 08:35 Sunny 73 23 73 23 100 100 Calm 30.03 1017 10 16.09344 0 0
8:55 am 08:55 Sunny 77 25 73 23 89 89 Calm 30.03 1017 10 16.09344 0 0
9:15 am 09:15 Sunny 77 25 73 23 89 89 N 3 6 30.03 1017 10 16.09344 0 0
9:35 am 09:35 Sunny 79 26 75 24 89 89 NW 6 9 30.03 1017 10 16.09344 0 0
9:55 am 09:55 Sunny 81 27 73 23 79 79 N 3 6 30.03 1017 10 16.09344 0 0
10:15 am 10:15 Sunny 81 27 73 23 79 79 NNW 7 11 30.03 1017 10 16.09344 0 0
10:35 am 10:35 Sunny 82 28 75 24 79 79 NW 7 11 30.03 1017 10 16.09344 0 0
10:55 am 10:55 Sunny 82 28 75 24 79 79 WNW 6 9 30.03 1017 10 16.09344 0 0
11:15 am 11:15 Partly Cloudy 82 28 75 24 79 79 NW 6 9 30.03 1017 10 16.09344 0 0
11:35 am 11:35 Sunny 82 28 73 23 74 74 NNW 7 11 30.03 1017 10 16.09344 0 0
11:55 am 11:55 Sunny 82 28 75 24 79 79 NW 9 15 30.03 1017 10 16.09344 0 0
12:15 pm 12:15 Sunny 82 28 73 23 74 74 NNW 7 11 30.03 1017 10 16.09344 0 0
12:35 pm 12:35 Sunny 82 28 73 23 74 74 WNW 5 7 30.03 1017 10 16.09344 0 0
12:55 pm 12:55 Sunny 86 30 73 23 66 66 NNE 5 7 30.03 1017 10 16.09344 0 0
1:15 pm 13:15 Sunny 86 30 72 22 62 62 N 6 9 30.03 1017 10 16.09344 0 0
1:35 pm 13:35 Partly Cloudy 86 30 72 22 62 62 NNW 5 7 30.03 1017 10 16.09344 0 0
1:55 pm 13:55 Partly Cloudy 86 30 72 22 62 62 W 5 7 30.03 1017 10 16.09344 0 0
2:15 pm 14:15 Sunny 86 30 70 21 59 59 N 5 7 30.03 1017 10 16.09344 0 0
2:35 pm 14:35 Partly Cloudy 86 30 72 22 62 62 NNW 7 11 30.03 1017 10 16.09344 0 0
2:55 pm 14:55 Partly Cloudy 88 31 70 21 55 55 N 5 7 30 1016 10 16.09344 0 0
3:15 pm 15:15 Partly Cloudy 88 31 72 22 59 59 NNW 8 13 29.97 1015 10 16.09344 0 0
3:35 pm 15:35 Partly Cloudy 88 31 72 22 59 59 Calm 29.97 1015 10 16.09344 0 0
3:55 pm 15:55 Partly Cloudy 88 31 72 22 59 59 NNW 6 9 29.97 1015 10 16.09344 0 0
4:15 pm 16:15 Partly Cloudy 88 31 72 22 59 59 NNE 3 6 29.97 1015 10 16.09344 0 0
4:35 pm 16:35 Partly Cloudy 88 31 72 22 59 59 ENE 6 9 29.97 1015 10 16.09344 0 0
4:55 pm 16:55 Sunny 88 31 72 22 59 59 NE 6 9 29.97 1015 10 16.09344 0 0
5:15 pm 17:15 Partly Cloudy 88 31 72 22 59 59 NE 6 9 29.97 1015 10 16.09344 0 0
5:35 pm 17:35 Mostly Cloudy 86 30 72 22 62 62 NE 5 7 30 1016 10 16.09344 0 0
5:55 pm 17:55 Cloudy 86 30 72 22 62 62 NE 6 9 30 1016 10 16.09344 0 0
6:15 pm 18:15 Cloudy 86 30 72 22 62 62 NE 3 6 30 1016 10 16.09344 0 0
6:35 pm 18:35 Mostly Cloudy 86 30 72 22 62 62 Calm 30 1016 10 16.09344 0 0
6:55 pm 18:55 Partly Cloudy 86 30 70 21 59 59 Calm 30 1016 10 16.09344 0 0
7:15 pm 19:15 Partly Cloudy 86 30 70 21 59 59 Calm 30 1016 10 16.09344 0 0
7:35 pm 19:35 Mostly Cloudy 84 29 72 22 66 66 Calm 30 1016 10 16.09344 0 0
7:55 pm 19:55 Cloudy 81 27 73 23 79 79 Calm 30 1016 10 16.09344 0 0
8:15 pm 20:15 Cloudy 81 27 75 24 84 84 Calm 30 1016 10 16.09344 0 0
8:35 pm 20:35 Cloudy 79 26 75 24 89 89 Calm 30.03 1017 10 16.09344 0 0
8:55 pm 20:55 Cloudy 81 27 77 25 89 89 Calm 30.03 1017 10 16.09344 0 0
9:15 pm 21:15 Cloudy 81 27 77 25 89 89 Calm 30.03 1017 10 16.09344 0 0
9:35 pm 21:35 Cloudy 79 26 77 25 94 94 Calm 30.03 1017 10 16.09344 0 0
9:55 pm 21:55 Cloudy 79 26 75 24 89 89 Calm 30.03 1017 10 16.09344 0 0
10:15 pm 22:15 Mostly Cloudy 77 25 75 24 94 94 Calm 30.06 1018 10 16.09344 0 0
10:35 pm 22:35 Partly Cloudy 77 25 75 24 94 94 Calm 30.06 1018 10 16.09344 0 0
10:55 pm 22:55 Clear 77 25 75 24 94 94 Calm 30.06 1018 10 16.09344 0 0
11:15 pm 23:15 Partly Cloudy 75 24 75 24 100 100 Calm 30.06 1018 10 16.09344 0 0
11:30 pm 23:30 Mostly Cloudy 77 25 73 23 89 89 Calm 30.06 1018 10 16.09344 0 0
11:55 pm 23:55 Cloudy 77 25 73 23 89 89 Calm 30.06 1018 10 16.09344 0 0

Powered by AerisWeather